Location: Jaite
(41.2884°N, 81.5737°W)
Time: 12:38:13
(UTC+00:00)

PAYLOAD A - Pass Details

Date: 15 November 2025
Orbit: 690 x 828 km, 98.6° (Epoch: 06 December)

Event Time Altitude Azimuth Distance (km) Brightness Sun altitude
Rises 09:38:20 0° 14° (NNE) 3,356 7.5 -29.4°
Reaches altitude 10° 09:40:44 10° 15° (NNE) 2,407 6.7 -28.9°
Enters shadow 09:45:52 81° 54° (NE) 809 4.0 -27.9°
